Wind_Speed
34 34 35 35 36 37 37 38 38 39 39 41 42 43 43 43 43 44 44 44 45 45 45 46 46 46 46 47 47 47 47 47 47 47 45 45 45 44 44 43 43 43 43 42
33 33 33 34 35 35 35 36 36 38 38 39 40 41 41 42 43 44 44 44 44 44 44 45 45 45 45 46 47 47 47 47 47 47 46 46 45 45 44 44 44 43 42 42
32 32 31 33 33 34 35 35 35 36 37 38 39 39 39 39 41 42 43 43 43 43 43 43 44 45 45 45 46 47 47 47 47 47 47 46 45 45 45 45 45 44 43 43
31 31 31 32 32 32 33 34 35 35 36 37 38 39 36 37 38 38 39 40 41 42 43 43 44 44 45 45 46 47 47 46 46 46 46 46 45 45 45 45 44 44 44 43
30 29 30 30 30 31 31 31 32 33 34 35 35 37 35 36 37 36 37 38 40 41 42 43 43 43 44 45 46 46 46 46 46 47 46 46 45 45 45 45 45 45 45 44
29 29 29 28 28 29 30 30 31 31 32 33 32 35 35 34 35 35 37 38 38 39 40 41 42 43 44 45 46 46 46 47 47 46 46 46 46 45 46 46 45 45 44 44
26 26 27 27 27 28 28 29 30 30 31 32 31 33 33 33 33 34 35 35 36 37 38 40 41 41 42 44 45 46 46 47 47 46 45 46 47 47 47 46 46 45 45 44
25 25 24 25 26 27 27 28 29 30 31 31 30 32 31 31 31 32 33 34 34 36 38 39 41 42 43 44 45 45 46 47 47 45 45 45 46 47 47 47 46 45 45 44
24 24 23 24 25 26 26 27 28 29 30 31 30 29 30 30 30 31 33 34 35 36 37 38 39 40 42 43 45 46 47 47 47 46 46 46 47 47 47 47 46 45 45 44
23 23 22 23 24 25 25 25 26 28 29 30 30 27 27 29 30 31 32 33 34 35 36 36 36 37 39 42 43 45 46 46 46 46 46 46 46 46 47 47 46 45 45 46
22 23 22 23 23 23 24 24 25 26 27 29 29 26 26 28 29 30 31 32 33 34 34 34 34 35 36 38 40 40 42 43 44 45 45 46 47 46 47 47 46 46 46 46
21 22 23 22 22 22 23 23 24 25 26 27 29 27 26 27 28 29 30 31 31 32 32 32 32 33 34 36 37 38 40 41 42 43 44 45 46 46 46 46 46 46 46 46
21 22 22 22 21 22 22 22 23 25 26 27 28 27 26 27 28 28 29 28 28 29 29 30 31 31 32 34 35 36 38 39 40 42 43 45 45 45 45 45 45 46 46 45
22 22 22 22 21 22 21 21 22 23 25 26 26 26 26 28 28 27 27 26 26 27 28 28 28 28 29 31 32 34 35 36 37 39 41 42 44 45 45 45 45 45 46 45
23 23 23 23 23 23 23 22 22 23 24 26 25 25 26 27 27 27 26 25 26 26 26 26 26 28 29 30 30 32 32 33 35 36 38 40 41 42 43 44 44 44 44 44
24 24 24 24 23 23 23 22 23 23 23 24 24 24 24 26 26 25 25 25 26 25 25 25 25 27 28 28 29 31 32 34 34 35 36 38 39 41 42 42 43 43 43 44
24 24 24 24 24 24 23 22 23 23 23 23 24 24 24 25 24 24 25 25 24 24 25 25 26 27 28 29 29 29 31 32 33 34 35 37 39 40 40 41 41 43 43 43
23 23 24 24 24 25 23 22 22 23 23 23 23 24 25 24 24 24 24 24 25 25 25 26 27 28 28 29 29 29 30 31 31 33 34 35 37 38 38 39 41 42 43 44
23 23 24 24 25 25 23 22 22 23 22 23 23 23 24 25 25 25 24 24 25 25 25 26 27 27 26 27 28 29 29 29 30 31 31 32 33 35 37 38 40 41 42 43
22 23 23 23 24 24 22 22 22 22 22 22 22 22 22 23 23 23 25 25 25 25 25 25 26 26 26 26 27 27 28 28 29 30 31 31 32 34 36 37 38 39 40 41
21 21 22 23 24 24 23 23 22 22 22 21 22 22 21 22 22 22 24 25 25 25 25 24 25 25 25 26 27 27 27 28 29 30 31 31 32 33 34 35 36 37 38 39
21 22 22 22 23 23 22 22 22 22 22 22 22 22 22 22 23 23 23 24 25 25 25 25 25 24 24 25 27 27 27 27 27 28 29 29 30 31 32 33 34 35 36 36
21 21 21 22 22 22 21 21 22 22 22 22 23 23 23 23 22 22 22 23 24 24 25 25 24 25 24 25 26 26 26 26 25 25 26 27 28 28 29 30 31 32 33 34
21 21 21 20 20 20 20 20 21 21 22 22 22 23 23 23 22 22 23 23 23 24 24 24 24 24 25 25 25 25 25 25 25 25 25 25 26 26 28 29 29 30 31 32
21 21 21 21 20 21 21 21 22 22 22 22 22 23 23 23 22 22 22 22 22 23 23 23 23 24 24 24 25 25 24 24 24 24 24 25 25 25 26 27 27 28 28 30
21 22 22 21 22 22 22 22 23 23 23 23 23 23 22 22 22 22 22 22 22 22 22 23 24 24 24 24 24 24 24 25 24 24 23 23 24 24 24 24 24 25 26 27
Wind_Direction
271 269 268 268 269 269 268 267 267 265 263 264 263 260 259 260 259 260 259 258 258 257 256 256 255 255 255 254 253 252 252 251 251 251 252 253 252 253 253 253 253 253 254 256
272 270 270 269 268 268 267 267 267 266 265 265 264 262 261 262 261 261 261 260 258 257 256 256 255 255 254 254 254 252 251 252 251 250 251 251 251 251 251 251 252 253 254 255
273 272 270 269 268 267 267 267 267 267 266 266 266 264 263 263 262 262 261 260 259 258 256 256 256 255 255 254 253 252 252 252 250 249 249 250 251 251 251 253 253 253 254 255
274 273 271 270 269 268 267 266 267 268 268 267 268 268 264 264 263 263 262 260 259 258 257 256 256 256 255 254 253 252 251 249 248 248 248 249 251 251 251 253 253 254 255 256
275 274 272 269 269 269 269 269 269 268 268 268 268 269 267 266 264 263 261 259 258 258 258 257 256 256 256 254 253 252 250 248 246 247 247 249 250 250 250 251 252 254 255 256
275 275 273 270 268 269 270 269 268 268 269 269 270 271 270 268 266 262 260 259 259 258 257 257 257 258 256 255 253 251 249 247 245 245 247 249 249 250 251 251 252 253 255 256
275 275 274 272 270 269 270 269 270 271 271 272 273 273 273 270 267 263 261 261 260 258 257 258 258 259 257 255 252 249 248 246 245 246 248 250 250 250 250 250 252 253 255 256
278 275 274 273 273 272 271 270 271 273 275 276 275 275 274 272 268 264 262 261 261 259 259 260 261 260 257 255 253 250 247 246 245 246 248 249 249 250 250 251 253 254 255 255
281 278 275 275 275 275 273 271 272 274 276 278 278 277 276 272 269 266 265 263 263 262 263 264 263 260 258 256 253 251 248 245 245 246 247 248 249 249 250 251 252 253 254 254
283 280 277 276 276 276 276 276 274 273 276 280 280 279 278 273 269 269 269 268 266 266 267 266 264 262 260 257 254 251 247 245 246 246 248 248 249 250 250 251 251 251 253 252
284 282 281 278 278 278 276 276 276 275 275 278 281 281 278 274 270 269 270 271 270 268 268 267 265 265 262 257 253 250 246 246 248 249 249 249 250 251 251 250 251 250 250 252
284 282 281 281 280 280 279 279 278 278 278 277 279 281 279 279 276 274 274 274 272 270 270 268 266 264 261 256 252 250 249 248 249 249 249 249 250 250 250 250 250 250 250 251
284 284 283 281 280 280 280 280 280 281 281 280 279 278 278 279 278 276 276 275 273 272 272 269 267 265 262 258 254 252 250 250 250 250 250 250 250 249 248 249 250 251 250 251
280 280 283 283 282 282 282 280 281 281 281 282 280 277 274 277 277 276 275 274 273 273 273 273 268 264 262 260 258 255 252 251 252 250 250 250 250 250 249 249 251 252 251 250
281 279 281 282 280 281 281 281 280 281 282 284 284 279 276 276 277 276 274 272 272 272 274 273 267 263 262 262 261 256 254 255 255 254 252 251 250 250 250 251 252 251 251 250
282 281 280 279 279 281 281 281 280 281 283 286 286 283 280 278 276 275 275 274 272 272 272 270 266 263 263 265 264 259 257 258 258 256 254 252 250 250 251 252 252 251 250 250
282 282 282 280 279 280 281 283 283 283 284 286 286 284 280 279 278 276 275 274 273 272 271 269 267 265 265 266 264 260 260 260 259 258 256 254 252 252 252 252 252 251 250 250
281 281 284 285 283 280 284 285 285 285 287 288 289 286 281 280 279 278 275 274 275 274 273 273 273 271 268 267 264 261 261 261 260 258 256 256 255 253 253 252 252 251 249 250
282 282 283 285 285 284 283 285 286 287 286 288 289 289 283 280 278 277 276 275 275 274 273 273 273 272 269 268 265 263 262 264 262 259 257 258 257 256 254 253 253 251 250 251
282 283 283 284 284 286 286 285 287 287 286 287 289 290 288 283 280 278 275 275 274 274 275 274 273 272 270 269 268 266 264 265 263 261 261 260 258 256 255 254 253 251 250 251
282 282 283 284 284 284 286 286 286 287 289 287 288 290 290 287 284 280 277 277 277 276 276 276 275 274 271 269 270 269 268 266 265 263 262 260 258 258 256 255 253 251 252 254
282 281 283 285 285 285 287 286 285 286 287 287 287 289 290 289 285 281 279 278 279 278 277 277 276 275 273 273 274 273 271 270 268 265 262 260 260 259 258 256 253 254 255 256
281 282 283 285 286 286 287 286 285 285 286 287 287 289 291 289 286 282 280 280 279 277 278 278 277 275 274 276 276 273 272 271 271 270 265 263 263 262 260 258 256 255 257 256
281 280 282 283 284 283 284 287 287 287 288 289 290 290 290 289 286 283 281 280 280 279 278 277 277 276 275 276 274 274 274 273 271 271 269 268 267 266 264 262 259 258 257 255
280 279 280 281 282 282 282 285 287 287 288 290 290 290 290 289 287 285 282 281 280 280 280 278 278 278 277 276 275 275 274 273 271 270 269 266 266 266 264 262 260 258 257 256
279 278 278 279 280 280 281 283 287 288 288 288 289 289 289 290 288 286 285 283 283 283 283 282 281 279 278 277 277 276 275 272 271 271 271 270 268 267 265 262 260 258 258 257
Height
5667 5668 5668 5667 5667 5667 5667 5666 5667 5667 5667 5667 5668 5670 5673 5674 5675 5677 5678 5680 5682 5684 5686 5688 5690 5693 5695 5698 5700 5703 5706 5710 5713 5716 5719 5722 5725 5728 5730 5733 5735 5737 5740 5743
5659 5659 5659 5658 5658 5657 5657 5657 5657 5657 5657 5657 5657 5659 5662 5663 5664 5666 5667 5669 5671 5673 5675 5677 5679 5681 5684 5686 5689 5691 5695 5698 5702 5705 5709 5711 5714 5717 5719 5722 5725 5728 5730 5732
5650 5651 5650 5649 5649 5648 5648 5648 5648 5648 5648 5647 5648 5650 5652 5653 5653 5655 5656 5658 5659 5661 5663 5665 5667 5670 5672 5674 5677 5680 5683 5686 5690 5693 5697 5699 5702 5705 5709 5712 5715 5717 5720 5722
5642 5642 5641 5640 5640 5639 5639 5640 5639 5639 5639 5639 5639 5638 5643 5643 5643 5644 5646 5647 5648 5650 5652 5654 5656 5658 5661 5663 5665 5668 5671 5674 5678 5681 5685 5688 5691 5695 5699 5701 5704 5707 5709 5712
5634 5634 5633 5632 5633 5632 5632 5632 5631 5630 5629 5630 5630 5629 5633 5632 5633 5634 5635 5636 5638 5639 5641 5643 5645 5647 5649 5651 5654 5656 5659 5662 5666 5670 5673 5677 5680 5683 5687 5690 5693 5696 5698 5701
5626 5626 5625 5625 5625 5624 5624 5624 5623 5622 5621 5621 5622 5620 5622 5623 5623 5624 5625 5626 5627 5629 5630 5631 5633 5634 5637 5639 5641 5644 5647 5650 5654 5658 5662 5665 5668 5672 5675 5678 5682 5685 5687 5690
5619 5619 5618 5617 5617 5617 5616 5616 5615 5613 5613 5613 5614 5612 5613 5614 5614 5615 5616 5616 5617 5618 5619 5620 5621 5623 5625 5626 5628 5632 5635 5639 5643 5647 5650 5654 5657 5660 5664 5667 5670 5673 5676 5679
5612 5612 5612 5610 5610 5609 5609 5608 5608 5607 5606 5606 5606 5604 5606 5605 5605 5605 5606 5607 5607 5608 5609 5609 5610 5611 5612 5614 5617 5620 5623 5627 5631 5636 5639 5642 5645 5648 5652 5655 5658 5662 5665 5668
5605 5605 5605 5604 5603 5602 5601 5601 5601 5600 5598 5598 5598 5598 5598 5597 5597 5597 5597 5597 5598 5598 5599 5599 5599 5599 5600 5602 5604 5607 5611 5616 5620 5624 5628 5631 5634 5637 5640 5643 5646 5650 5653 5656
5599 5598 5598 5597 5596 5595 5595 5594 5594 5592 5591 5590 5590 5591 5591 5590 5589 5589 5588 5588 5589 5589 5589 5589 5588 5589 5589 5590 5592 5595 5599 5604 5608 5612 5615 5619 5622 5625 5628 5631 5634 5638 5641 5644
5593 5592 5592 5591 5590 5589 5589 5588 5586 5585 5584 5583 5583 5586 5583 5582 5581 5581 5580 5580 5580 5579 5579 5579 5579 5579 5578 5579 5581 5584 5588 5592 5596 5600 5604 5607 5611 5614 5617 5619 5623 5626 5629 5632
5587 5587 5585 5585 5584 5583 5582 5581 5580 5580 5578 5577 5576 5580 5576 5575 5573 5573 5572 5571 5571 5571 5570 5570 5569 5569 5569 5570 5572 5574 5577 5580 5584 5588 5592 5596 5599 5602 5605 5608 5611 5614 5617 5621
5582 5581 5580 5580 5580 5578 5576 5576 5574 5573 5572 5571 5570 5574 5570 5568 5566 5565 5565 5564 5564 5563 5562 5561 5561 5561 5561 5562 5564 5565 5567 5570 5573 5577 5580 5584 5587 5591 5594 5597 5600 5603 5606 5609
5576 5575 5575 5575 5573 5571 5571 5570 5569 5567 5566 5565 5565 5564 5563 5561 5559 5559 5558 5557 5556 5555 5555 5553 5553 5553 5554 5555 5556 5557 5559 5561 5564 5566 5569 5572 5576 5579 5583 5586 5589 5592 5595 5598
5569 5569 5569 5568 5567 5565 5565 5565 5563 5562 5561 5559 5559 5557 5556 5554 5553 5552 5551 5550 5550 5549 5548 5547 5546 5547 5547 5548 5549 5550 5551 5553 5555 5557 5559 5562 5565 5568 5571 5574 5577 5580 5583 5586
5563 5563 5563 5563 5561 5559 5559 5559 5557 5556 5555 5553 5552 5551 5549 5547 5546 5545 5544 5544 5543 5542 5542 5541 5541 5540 5541 5541 5542 5543 5544 5545 5546 5548 5550 5552 5555 5557 5560 5563 5565 5568 5572 5575
5558 5557 5557 5556 5555 5553 5554 5554 5552 5551 5549 5548 5546 5546 5542 5541 5540 5539 5538 5537 5536 5536 5535 5535 5534 5534 5534 5534 5534 5535 5536 5537 5537 5539 5540 5542 5544 5547 5549 5551 5554 5557 5560 5563
5552 5551 5550 5550 5549 5548 5551 5547 5546 5544 5543 5541 5540 5538 5536 5534 5533 5533 5531 5531 5530 5529 5529 5528 5527 5527 5526 5526 5526 5527 5528 5529 5529 5530 5531 5533 5534 5536 5538 5541 5543 5546 5548 5551
5546 5546 5544 5544 5542 5542 5543 5542 5539 5538 5537 5536 5534 5532 5530 5528 5527 5527 5526 5525 5524 5523 5522 5521 5520 5520 5519 5519 5519 5520 5520 5521 5521 5521 5522 5523 5524 5526 5528 5530 5532 5534 5537 5540
5541 5540 5539 5538 5536 5536 5538 5536 5533 5533 5532 5530 5528 5526 5524 5522 5522 5521 5519 5518 5518 5517 5516 5515 5514 5513 5513 5512 5512 5512 5513 5513 5513 5513 5514 5514 5515 5516 5518 5520 5522 5524 5526 5529
5535 5534 5533 5532 5530 5530 5531 5529 5528 5528 5527 5524 5522 5521 5519 5517 5516 5515 5513 5512 5511 5510 5510 5509 5508 5507 5506 5505 5505 5505 5505 5505 5504 5505 5505 5506 5506 5507 5508 5509 5511 5513 5516 5519
5529 5529 5528 5527 5525 5527 5525 5523 5522 5521 5519 5518 5516 5515 5513 5512 5510 5509 5508 5506 5505 5504 5503 5502 5501 5500 5499 5498 5498 5498 5497 5497 5497 5497 5497 5497 5498 5498 5499 5500 5502 5503 5506 5508
5524 5524 5522 5522 5523 5520 5518 5517 5516 5515 5514 5512 5511 5510 5508 5506 5504 5503 5502 5501 5499 5498 5497 5496 5495 5494 5493 5492 5491 5490 5490 5490 5489 5489 5489 5489 5489 5490 5490 5491 5493 5494 5496 5498
5519 5518 5517 5516 5516 5514 5513 5511 5510 5509 5508 5506 5505 5503 5502 5500 5499 5497 5496 5495 5493 5492 5491 5490 5489 5488 5487 5485 5484 5483 5483 5483 5482 5482 5482 5482 5482 5482 5482 5483 5484 5485 5487 5489
5513 5512 5511 5511 5510 5509 5508 5506 5505 5503 5502 5501 5499 5497 5496 5494 5493 5491 5490 5488 5487 5486 5485 5484 5483 5481 5480 5479 5477 5476 5476 5476 5476 5475 5475 5475 5475 5475 5475 5476 5476 5477 5479 5480
5507 5506 5506 5505 5504 5503 5502 5500 5499 5498 5496 5495 5494 5492 5490 5488 5487 5485 5484 5483 5481 5480 5479 5477 5476 5475 5473 5472 5470 5469 5469 5468 5468 5468 5468 5468 5468 5468 5468 5468 5469 5469 5471 5472